Terug naar catalogus

STARLINK-5479

ActiefCommunicatieVLEO
NORAD 55662·PAYLOAD·🇺🇸 United States

Gelanceerd Feb 17, 2023 vanaf Vandenberg Space Force Base

Loading…

Volgende Passages (komende 24 uur)

TLE

VersSource: CelesTrak SupGP

Epoch: Sep 15, 2026, 01:48 UTC

1 55662C 23021AL  26258.07548611  .00652630  00000+0  53722-1 0  2586
2 55662  70.0004  47.3794 0003048 272.2413  29.8396 14.98693673    11

Volg STARLINK-5479 in realtime met AllMySat

Download on the App Store